Printer-friendly version

IAU Minor Planet Center

Minor Planet Center

MPEC 2005-L45 : 2004 ES95

The following Minor Planet Electronic Circular may be linked-to from your own Web pages, but must not otherwise be redistributed electronically.


Read MPEC 2005-L44 Read MPEC 2005-L46


M.P.E.C. 2005-L45                                Issued 2005 June 10, 19:25 UT

     The Minor Planet Electronic Circulars contain information on unusual
         minor planets and routine data on comets.  They are published
   on behalf of Commission 20 of the International Astronomical Union by the
          Minor Planet Center, Smithsonian Astrophysical Observatory,
                          Cambridge, MA 02138, U.S.A.

                  Supported in part by the Brinson Foundation
             Prepared using the Tamkin Foundation Computer Network

                              MPC@CFA.HARVARD.EDU
          URL http://cfa-www.harvard.edu/iau/mpc.html  ISSN 1523-6714

                                   2004 ES95

                           Revision to MPEC 2004-H31

Additional Observations:
     K04E95S  C2005 06 01.28539 12 47 22.13 -03 31 13.9          23.1 R EL045568
     K04E95S  C2005 06 01.33921 12 47 22.03 -03 31 13.5                 EL045568
     K04E95S  C2005 06 02.28443 12 47 20.16 -03 31 04.3                 EL045568

Observer details:
568 Mauna Kea.  Observers J. Pittichova, B. Yang.  Measurer K. J. Meech.

First and last observations above in comparison with prediction:
Residuals in seconds of arc and reference
050601 568 28.2+ 11.0-    050602 568 28.1+ 10.9-    MPO 66346

Orbital elements:
2004 ES95
Epoch 2005 Jan. 30.0 TT = JDT 2453400.5                 MPC
M 354.94104              (2000.0)            P               Q
n   0.00326267     Peri.  161.62036     -0.94524416     +0.32424714
a  45.0215482      Node    37.36491     -0.30657982     -0.84319469
e   0.0859379      Incl.    3.50585     -0.11190301     -0.42881990
P 302              H    6.9           G   0.15           U   7
Residuals in seconds of arc
040315 695  0.0   0.1+    040715 807  0.0   0.1-    050601 568  0.0   0.0
040316 695  0.0   0.0     040716 807  0.0   0.0     050601 568  0.2+  0.1-
040316 695  0.0   0.0     040716 807  0.0   0.0     050602 568  0.1-  0.0

Ephemeris:
2004 ES95                a,e,i = 45.02, 0.09, 4                  q = 41.152
Date    TT    R. A. (2000) Decl.     Delta      r     Elong.  Phase     V
2005 06 09    12 47.15   -03 30.2   40.744   41.168   114.0     1.3    23.2
2005 06 19    12 46.99   -03 29.7   40.903   41.167   104.4     1.4    23.2
2005 06 29    12 46.97   -03 30.1   41.068   41.167    94.9     1.4    23.2
2005 07 09    12 47.10   -03 31.5   41.236   41.167    85.4     1.4    23.2
2005 07 19    12 47.37   -03 33.7   41.402   41.167    75.9     1.4    23.2
2005 07 29    12 47.79   -03 36.8   41.561   41.166    66.5     1.3    23.2
2005 08 08    12 48.33   -03 40.7   41.709   41.166    57.1     1.2    23.2
2005 08 18    12 48.99   -03 45.3   41.841   41.166    47.7     1.0    23.2
2005 08 28    12 49.76   -03 50.5   41.954   41.166    38.2     0.9    23.2

Brian G. Marsden             (C) Copyright 2005 MPC           M.P.E.C. 2005-L45

Read MPEC 2005-L44 Read MPEC 2005-L46


Our Web policy. Index to the CBAT/MPC/ICQ pages.


Valid HTML 4.01!